Regional Weather Roundup
Issued by NWS

Home | Current Version | Previous Version | Text Only | Print | Product List | Glossary Off
Versions: 1 2 3 4 5 6 7 8 9 10 11 12 13 14 15 16 17 18 19 20 21 22 23 24 25 26 27 28 29 30 31 32 33 34 35 36 37 38 39 40 41 42 43 44 45 46 47 48 49 50

127
ASUS44 KLIX 020105
RWRLA
LOUISIANA WEATHER ROUNDUP
NATIONAL WEATHER SERVICE NEW ORLEANS LA
800 PM CDT FRI AUG 01 2014

NOTE: "FAIR" INDICATES FEW OR NO CLOUDS BELOW 12,000 FEET WITH NO
      SIGNIFICANT WEATHER AND/OR OBSTRUCTIONS TO VISIBILITY.
      SKY/WX - SKY CONDITION AND SIGNIFICANT WEATHER.
      TMP - AIR TEMPERATURE.    DP   - DEWPOINT TEMPERATURE.
      RH  - RELATIVE HUMIDITY.  PRES - PRESSURE.
      HX  - HEAT INDEX.         WCI  - WIND CHILL INDEX.

*  THESE STATIONS ARE NOT NWS OR FAA STATIONS AND ARE NOT UNDER
   NWS QUALITY CONTROL.

LAZ040-048-061>063-065-066-069-020200-
SOUTHEAST LOUISIANA

CITY           SKY/WX    TMP DP  RH WIND       PRES   REMARKS
N.O. AUDUBON     N/A     85  67  55 MISG        N/A
N.O. INTL ARPT MOCLDY    82  67  60 SE5       29.96S
N.O. LAKEFRONT MOCLDY    82  72  71 E10       29.97R
N.O. DOWNTOWN* FAIR      84  64  51 S6        29.97R
SLIDELL        MOCLDY    79  70  74 E3        29.96S
BATON ROUGE    MOCLDY    78  73  84 E5        29.95S
BOOTHVILLE     MOCLDY    81  70  69 E3        29.97S
BELLE CHASSE   CLOUDY    83  66  56 S7        29.96R
BOGALUSA*      FAIR      79  72  79 E3        30.00R
GALLIANO*      NOT AVBL
NEW ROADS*     MOCLDY    77  73  87 SE6       29.94S
GONZALES*      CLOUDY    79  77  94 CALM      29.95S
HAMMOND*       CLOUDY    79  70  73 NE3       29.98R
HOUMA*         CLOUDY    81  69  66 CALM      29.95S HAZE
PORT FOURCHON* CLEAR     84  68  58 SE5       29.98S

$$

LAZ041-044-053-054-020200-
SOUTHWEST LOUISIANA

CITY           SKY/WX    TMP DP  RH WIND       PRES   REMARKS
LAKE CHARLES   MOCLDY    83  73  72 NW5       29.91S
LAFAYETTE      CLOUDY    78  75  90 CALM      29.94R
PATTERSON      MOCLDY    79  75  89 SE5       29.98S
SALT POINT       N/A     83  75  77 SE5       29.93S
NEW IBERIA     CLOUDY    81  75  82 SE8       29.94S
CHENAULT AIRPK MOCLDY    82  72  69 CALM      29.92S

$$

LAZ027-028-020200-
CENTRAL LOUISIANA

CITY           SKY/WX    TMP DP  RH WIND       PRES   REMARKS
FORT POLK      CLOUDY    76  71  85 N10       29.94S
ALEXANDRIA INT CLOUDY    77  73  87 N7        29.92R
ALEXANDRIA     LGT RAIN  78  74  87 N5        29.93R

$$

LAZ001-002-020200-
NORTHWEST LOUISIANA

CITY           SKY/WX    TMP DP  RH WIND       PRES   REMARKS
SHREVEPORT     DRIZZLE   70  68  93 N8        29.98S
BARKSDALE AFB  CLOUDY    69  68  95 N6        29.99R
DTN SHREVEPORT CLOUDY    69  67  93 N3        29.99S FOG

$$

LAZ014-016-020200-
NORTHEAST LOUISIANA

CITY           SKY/WX    TMP DP  RH WIND       PRES   REMARKS
MONROE         RAIN      70  70 100 NE7       29.98R FOG
TALLULAH       RAIN      72  70  93 E3        29.98R FOG

$$




USA.gov is the U.S. government's official web portal to all federal, state and local government web resources and services.